�������l�o���
Date,Time,MP-1(��Sv/h),MP-2(��Sv/h),MP-3(��Sv/h),MP-4(��Sv/h),MP-5(��Sv/h),MP-6(��Sv/h),MP-7(��Sv/h),MP-8(��Sv/h),����,����(m/s),���J
2017/10/30,00:00,0.878,1.365,0.863,1.629,1.076,0.492,0.883,0.826,�k��,9.7,��
2017/10/30,00:10,0.879,1.366,0.865,1.634,1.076,0.490,0.884,0.826,�k��,7.9,��
2017/10/30,00:20,0.877,1.368,0.864,1.632,1.078,0.491,0.883,0.829,�k��,6.0,��
2017/10/30,00:30,0.878,1.368,0.867,1.633,1.076,0.491,0.882,0.828,�k��,5.6,��
2017/10/30,00:40,0.880,1.367,0.868,1.635,1.079,0.491,0.883,0.828,�k�k��,5.1,��
2017/10/30,00:50,0.877,1.368,0.869,1.638,1.080,0.492,0.883,0.829,�k��,3.5,��
2017/10/30,01:00,0.877,1.370,0.868,1.633,1.080,0.489,0.886,0.827,���k��,3.7,��
2017/10/30,01:10,0.880,1.369,0.868,1.639,1.081,0.491,0.888,0.829,��,2.6,��
2017/10/30,01:20,0.879,1.370,0.866,1.639,1.079,0.492,0.888,0.827,�쐼,0.9,��
2017/10/30,01:30,0.881,1.372,0.870,1.638,1.082,0.491,0.888,0.830,���k��,1.5,��
2017/10/30,01:40,0.882,1.372,0.870,1.640,1.084,0.493,0.887,0.829,���쐼,0.8,��
2017/10/30,01:50,0.881,1.372,0.870,1.641,1.083,0.493,0.888,0.830,���k��,8.2,��
2017/10/30,02:00,0.881,1.371,0.871,1.642,1.083,0.492,0.888,0.831,���k��,8.8,��
2017/10/30,02:10,0.883,1.371,0.871,1.644,1.084,0.492,0.889,0.830,���k��,8.9,��
2017/10/30,02:20,0.882,1.373,0.874,1.646,1.086,0.492,0.890,0.833,���k��,10.9,��
2017/10/30,02:30,0.882,1.374,0.874,1.648,1.087,0.492,0.891,0.830,���k��,9.9,�L
2017/10/30,02:40,0.883,1.375,0.875,1.647,1.087,0.492,0.889,0.832,���k��,8.0,��
2017/10/30,02:50,0.881,1.376,0.876,1.648,1.088,0.493,0.886,0.833,�k��,11.7,��
2017/10/30,03:00,0.883,1.373,0.876,1.649,1.091,0.491,0.889,0.831,�k��,16.4,��
2017/10/30,03:10,0.882,1.375,0.878,1.649,1.089,0.493,0.889,0.830,�k��,10.9,��
2017/10/30,03:20,0.881,1.375,0.876,1.650,1.091,0.491,0.889,0.831,���k��,8.9,��
2017/10/30,03:30,0.883,1.375,0.877,1.652,1.089,0.492,0.887,0.830,�k��,10.3,��
2017/10/30,03:40,0.881,1.374,0.876,1.653,1.092,0.493,0.887,0.831,�k��,6.3,��
2017/10/30,03:50,0.882,1.377,0.876,1.655,1.092,0.494,0.888,0.831,�k��,4.6,��
2017/10/30,04:00,0.879,1.379,0.875,1.655,1.094,0.493,0.888,0.831,�k�k��,6.0,��
2017/10/30,04:10,0.882,1.377,0.876,1.656,1.094,0.492,0.888,0.830,�k�k��,7.6,��
2017/10/30,04:20,0.882,1.379,0.877,1.655,1.093,0.493,0.889,0.831,�k��,10.5,��
2017/10/30,04:30,0.882,1.381,0.879,1.654,1.094,0.493,0.890,0.829,�k��,6.6,��
2017/10/30,04:40,0.882,1.376,0.878,1.657,1.095,0.493,0.889,0.831,�k��,3.1,��
2017/10/30,04:50,0.881,1.378,0.879,1.657,1.097,0.495,0.889,0.832,�k��,1.1,��
2017/10/30,05:00,0.883,1.383,0.880,1.656,1.095,0.494,0.892,0.832,���k��,6.4,��
2017/10/30,05:10,0.883,1.381,0.880,1.658,1.096,0.494,0.893,0.833,�k��,10.0,��
2017/10/30,05:20,0.881,1.381,0.879,1.661,1.096,0.494,0.892,0.831,�k�k��,7.8,��
2017/10/30,05:30,0.882,1.383,0.882,1.659,1.097,0.493,0.893,0.831,�k��,7.6,��
2017/10/30,05:40,0.882,1.383,0.882,1.661,1.099,0.493,0.890,0.833,���k��,9.4,��
2017/10/30,05:50,0.883,1.382,0.879,1.659,1.097,0.493,0.893,0.833,�k��,12.4,��
2017/10/30,06:00,0.881,1.382,0.882,1.660,1.100,0.493,0.893,0.831,�k��,10.6,��
2017/10/30,06:10,0.881,1.384,0.881,1.664,1.099,0.493,0.891,0.832,�k��,11.3,��
2017/10/30,06:20,0.882,1.385,0.881,1.665,1.099,0.494,0.891,0.831,�k��,8.2,��
2017/10/30,06:30,0.882,1.385,0.882,1.662,1.100,0.493,0.891,0.834,���k��,5.6,��
2017/10/30,06:40,0.881,1.384,0.880,1.661,1.098,0.493,0.891,0.833,���k��,5.3,��
2017/10/30,06:50,0.884,1.386,0.881,1.665,1.100,0.492,0.893,0.833,���k��,4.7,��
2017/10/30,07:00,0.881,1.386,0.880,1.660,1.099,0.494,0.891,0.833,�k�k��,6.0,��
2017/10/30,07:10,0.882,1.386,0.881,1.664,1.101,0.492,0.891,0.833,�k�k��,5.0,��
2017/10/30,07:20,0.881,1.386,0.881,1.664,1.100,0.493,0.891,0.832,�k��,2.6,��
2017/10/30,07:30,0.883,1.386,0.883,1.665,1.102,0.492,0.892,0.835,�k�k��,1.7,��
2017/10/30,07:40,0.880,1.389,0.882,1.667,1.104,0.493,0.893,0.834,�k�k��,0.8,��
2017/10/30,07:50,0.882,1.389,0.882,1.665,1.103,0.493,0.892,0.832,-,CALM,��
2017/10/30,08:00,0.884,1.388,0.883,1.668,1.105,0.493,0.893,0.833,��,3.3,��
2017/10/30,08:10,0.883,1.388,0.884,1.667,1.104,0.493,0.894,0.833,���k��,2.5,��
2017/10/30,08:20,0.883,1.386,0.884,1.669,1.105,0.493,0.895,0.833,��,7.7,��
2017/10/30,08:30,0.883,1.383,0.882,1.667,1.103,0.495,0.894,0.834,��,5.0,��
2017/10/30,08:40,0.885,1.383,0.884,1.668,1.104,0.494,0.893,0.833,���k��,5.4,��
2017/10/30,08:50,0.884,1.384,0.884,1.670,1.106,0.492,0.893,0.833,���k��,6.3,��
2017/10/30,09:00,0.886,1.386,0.884,1.667,1.108,0.492,0.893,0.835,��,8.3,��
2017/10/30,09:10,0.885,1.387,0.886,1.669,1.109,0.493,0.895,0.834,��,10.7,��
2017/10/30,09:20,0.885,1.387,0.885,1.669,1.108,0.494,0.893,0.833,��,12.0,�L
2017/10/30,09:30,0.883,1.387,0.886,1.671,1.107,0.493,0.893,0.834,���k��,9.2,��
2017/10/30,09:40,0.881,1.387,0.886,1.670,1.107,0.492,0.894,0.832,�k��,9.7,��
2017/10/30,09:50,0.885,1.386,0.883,1.674,1.107,0.492,0.893,0.831,�k��,8.3,��
2017/10/30,10:00,0.882,1.387,0.887,1.672,1.109,0.491,0.895,0.832,�k�k��,12.7,��
2017/10/30,10:10,0.882,1.390,0.883,1.672,1.107,0.491,0.894,0.832,�k��,12.2,�L
2017/10/30,10:20,0.883,1.389,0.884,1.673,1.109,0.491,0.893,0.831,�k��,12.8,�L
2017/10/30,10:30,0.882,1.389,0.885,1.672,1.109,0.489,0.893,0.832,�k��,11.3,�L
2017/10/30,10:40,0.881,1.391,0.884,1.671,1.108,0.490,0.894,0.830,�k��,10.2,�L
2017/10/30,10:50,0.882,1.389,0.885,1.672,1.112,0.490,0.893,0.832,�k��,7.7,��
2017/10/30,11:00,0.885,1.389,0.885,1.673,1.109,0.491,0.893,0.832,�k��,7.8,�L
2017/10/30,11:10,0.883,1.392,0.886,1.674,1.112,0.492,0.895,0.835,�k��,7.3,�L
2017/10/30,11:20,0.882,1.392,0.887,1.673,1.115,0.493,0.893,0.833,�k��,9.1,��
2017/10/30,11:30,0.886,1.392,0.888,1.676,1.114,0.492,0.892,0.835,�k��,9.3,��
2017/10/30,11:40,0.886,1.394,0.885,1.674,1.114,0.492,0.891,0.835,�k��,9.2,��
2017/10/30,11:50,0.886,1.396,0.886,1.673,1.116,0.493,0.894,0.836,�k��,8.7,��
2017/10/30,12:00,0.886,1.394,0.888,1.675,1.120,0.493,0.895,0.835,�k��,8.8,��
2017/10/30,12:10,0.886,1.400,0.886,1.677,1.116,0.494,0.896,0.835,���k��,10.2,��
2017/10/30,12:20,0.888,1.401,0.889,1.679,1.118,0.492,0.895,0.837,�k��,9.7,��
2017/10/30,12:30,0.886,1.401,0.890,1.679,1.116,0.494,0.894,0.836,���k��,10.2,��
2017/10/30,12:40,0.887,1.401,0.891,1.677,1.116,0.494,0.895,0.836,���k��,11.8,��
2017/10/30,12:50,0.886,1.398,0.888,1.681,1.116,0.494,0.896,0.833,���k��,11.7,��
2017/10/30,13:00,0.884,1.397,0.887,1.682,1.117,0.494,0.895,0.835,���k��,10.6,��
2017/10/30,13:10,0.883,1.397,0.888,1.680,1.117,0.494,0.896,0.834,���k��,11.3,��
2017/10/30,13:20,0.885,1.398,0.889,1.679,1.118,0.493,0.896,0.833,���k��,14.4,��
2017/10/30,13:30,0.884,1.398,0.889,1.683,1.116,0.493,0.895,0.836,���k��,12.5,��
2017/10/30,13:40,0.885,1.400,0.888,1.684,1.119,0.494,0.896,0.833,���k��,12.7,�L
2017/10/30,13:50,0.884,1.396,0.887,1.682,1.119,0.494,0.896,0.833,�k��,13.1,�L
2017/10/30,14:00,0.884,1.398,0.887,1.682,1.119,0.493,0.894,0.834,�k��,16.3,�L
2017/10/30,14:10,0.883,1.398,0.888,1.682,1.119,0.493,0.896,0.833,�k��,15.5,�L
2017/10/30,14:20,0.886,1.398,0.888,1.680,1.119,0.492,0.895,0.833,�k��,16.0,��
2017/10/30,14:30,0.884,1.403,0.885,1.684,1.119,0.495,0.894,0.833,�k��,12.4,��
2017/10/30,14:40,0.884,1.402,0.887,1.683,1.119,0.493,0.895,0.833,���k��,14.2,�L
2017/10/30,14:50,0.885,1.399,0.891,1.680,1.121,0.494,0.895,0.833,���k��,13.3,�L
2017/10/30,15:00,0.885,1.403,0.889,1.682,1.119,0.493,0.895,0.832,���k��,11.7,�L
2017/10/30,15:10,0.888,1.402,0.889,1.683,1.119,0.493,0.894,0.834,���k��,11.9,�L
2017/10/30,15:20,0.886,1.404,0.889,1.682,1.121,0.495,0.894,0.835,���k��,10.4,��
2017/10/30,15:30,0.884,1.402,0.891,1.683,1.123,0.494,0.895,0.835,���k��,9.8,��
2017/10/30,15:40,0.886,1.407,0.889,1.686,1.122,0.494,0.894,0.836,��,9.2,��
2017/10/30,15:50,0.884,1.404,0.892,1.685,1.121,0.494,0.894,0.836,��,7.7,��
2017/10/30,16:00,0.885,1.407,0.889,1.683,1.123,0.494,0.896,0.836,���k��,6.5,��
2017/10/30,16:10,0.886,1.406,0.891,1.684,1.123,0.495,0.897,0.838,���k��,4.7,��
2017/10/30,16:20,0.885,1.407,0.890,1.685,1.125,0.493,0.897,0.836,���k��,4.5,��
2017/10/30,16:30,0.885,1.407,0.890,1.685,1.123,0.494,0.897,0.837,���k��,4.2,��
2017/10/30,16:40,0.886,1.406,0.891,1.685,1.123,0.492,0.898,0.836,���k��,4.6,��
2017/10/30,16:50,0.888,1.407,0.887,1.684,1.123,0.494,0.899,0.835,�k��,4.9,��
2017/10/30,17:00,0.884,1.406,0.889,1.683,1.122,0.494,0.898,0.837,�k��,6.6,��
2017/10/30,17:10,0.886,1.407,0.889,1.684,1.124,0.494,0.895,0.837,�k��,9.1,��
2017/10/30,17:20,0.884,1.407,0.890,1.684,1.125,0.494,0.898,0.837,�k��,7.4,��
2017/10/30,17:30,0.886,1.405,0.891,1.682,1.121,0.493,0.897,0.836,�k��,6.3,��
2017/10/30,17:40,0.887,1.404,0.887,1.684,1.125,0.494,0.896,0.837,���k��,6.8,��
2017/10/30,17:50,0.885,1.408,0.892,1.686,1.125,0.492,0.899,0.837,�k��,8.0,��
2017/10/30,18:00,0.884,1.408,0.890,1.683,1.125,0.493,0.896,0.835,���k��,7.2,��
2017/10/30,18:10,0.887,1.409,0.890,1.683,1.124,0.495,0.899,0.835,���k��,7.5,��
2017/10/30,18:20,0.884,1.408,0.891,1.683,1.128,0.493,0.899,0.838,���k��,6.2,��
2017/10/30,18:30,0.888,1.408,0.891,1.683,1.126,0.494,0.898,0.834,�k��,7.5,��
2017/10/30,18:40,0.886,1.410,0.890,1.683,1.126,0.492,0.896,0.837,���k��,6.4,��
2017/10/30,18:50,0.886,1.407,0.891,1.685,1.125,0.492,0.899,0.835,�k��,5.3,��
2017/10/30,19:00,0.885,1.404,0.889,1.684,1.127,0.494,0.896,0.835,�k��,5.2,��
2017/10/30,19:10,0.886,1.408,0.890,1.684,1.126,0.494,0.897,0.836,�k��,6.5,��
2017/10/30,19:20,0.886,1.406,0.890,1.684,1.127,0.494,0.897,0.835,���k��,6.7,��
2017/10/30,19:30,0.884,1.409,0.890,1.684,1.123,0.493,0.896,0.838,���k��,9.2,��
2017/10/30,19:40,0.885,1.409,0.891,1.686,1.126,0.494,0.901,0.838,���k��,8.4,��
2017/10/30,19:50,0.887,1.407,0.893,1.684,1.126,0.494,0.897,0.835,���k��,9.3,��
2017/10/30,20:00,0.886,1.409,0.892,1.685,1.127,0.494,0.898,0.838,���k��,9.9,��
2017/10/30,20:10,0.886,1.408,0.890,1.681,1.125,0.492,0.898,0.837,���k��,10.7,��
2017/10/30,20:20,0.886,1.411,0.890,1.687,1.127,0.493,0.900,0.836,���k��,10.6,��
2017/10/30,20:30,0.886,1.405,0.890,1.686,1.125,0.493,0.898,0.836,���k��,11.4,��
2017/10/30,20:40,0.886,1.408,0.892,1.689,1.126,0.492,0.900,0.837,�k��,9.9,��
2017/10/30,20:50,0.887,1.410,0.893,1.687,1.127,0.493,0.899,0.836,�k��,7.9,��
2017/10/30,21:00,0.886,1.409,0.892,1.686,1.127,0.494,0.899,0.838,�k��,7.3,��
2017/10/30,21:10,0.886,1.408,0.891,1.689,1.127,0.496,0.899,0.838,�k��,9.2,��
2017/10/30,21:20,0.885,1.407,0.892,1.688,1.127,0.495,0.900,0.837,�k��,9.0,��
2017/10/30,21:30,0.886,1.406,0.892,1.686,1.128,0.494,0.899,0.837,�k��,8.6,��
2017/10/30,21:40,0.885,1.412,0.891,1.689,1.127,0.494,0.899,0.836,�k��,7.8,��
2017/10/30,21:50,0.887,1.409,0.891,1.687,1.126,0.494,0.897,0.836,���k��,8.9,��
2017/10/30,22:00,0.887,1.409,0.890,1.687,1.128,0.494,0.898,0.837,�k��,7.8,��
2017/10/30,22:10,0.886,1.407,0.889,1.687,1.127,0.495,0.897,0.837,�k��,7.5,��
2017/10/30,22:20,0.885,1.410,0.892,1.687,1.127,0.493,0.899,0.837,�k��,8.4,��
2017/10/30,22:30,0.885,1.407,0.890,1.686,1.128,0.493,0.899,0.838,�k��,6.9,��
2017/10/30,22:40,0.887,1.412,0.891,1.689,1.130,0.494,0.902,0.838,�k��,7.9,��
2017/10/30,22:50,0.887,1.410,0.892,1.688,1.128,0.492,0.900,0.837,���k��,5.0,��
2017/10/30,23:00,0.884,1.409,0.890,1.689,1.129,0.494,0.900,0.836,�k��,4.8,��
2017/10/30,23:10,0.885,1.410,0.892,1.687,1.127,0.492,0.900,0.837,�k�k��,5.9,��
2017/10/30,23:20,0.886,1.408,0.890,1.687,1.130,0.493,0.898,0.837,�k��,4.2,��
2017/10/30,23:30,0.886,1.410,0.893,1.688,1.128,0.493,0.898,0.837,�k��,3.9,��
2017/10/30,23:40,0.886,1.408,0.890,1.689,1.129,0.492,0.899,0.838,�k�k��,3.8,��
2017/10/30,23:50,0.885,1.410,0.891,1.686,1.129,0.493,0.897,0.837,�k��,2.2,��
